Location: Eaton Estates
(41.3089°N, 82.0057°W)
Time: 16:38:49
(UTC+00:00)

Cosmos 2228 - Pass Details

Date: 17 June 2021
Orbit: 588 x 618 km, 82.5° (Epoch: 01 August)

Event Time Altitude Azimuth Distance (km) Brightness Sun altitude
Rises 03:44:54 0° 359° (N) 2,902 7.6 -21.0°
Reaches altitude 10° 03:47:15 10° 7° (N) 1,992 6.5 -21.1°
Maximum altitude 03:51:26 41° 78° (ENE) 903 3.7 -21.5°
Enters shadow 03:51:51 40° 93° (E) 920 3.7 -21.5°
